Temperature
26 25 25 25 31 31 29 29 29 29 28 27 26 26 27 26 26 24 21 20 19 19 18 18 18 18 18 18 18 18 18 18 18 18 18 18 18 18 18 18 18 18 18 18 18 18 18 18 18
25 25 26 30 32 29 28 29 29 28 27 26 26 26 26 24 22 21 20 19 19 19 18 18 19 18 18 18 18 18 18 18 18 18 18 18 18 18 18 18 18 18 18 18 18 18 18 18 18
26 26 29 32 31 30 29 29 29 28 27 27 26 26 25 23 22 21 20 19 19 19 18 18 19 18 18 18 18 18 18 18 18 18 18 18 18 18 18 18 18 18 18 18 18 18 17 17 17
26 28 31 32 30 30 30 29 29 28 27 27 27 26 23 22 21 21 20 20 20 19 18 18 19 18 18 18 18 18 18 18 18 18 18 18 18 18 18 18 18 18 18 18 18 18 17 17 17
28 32 33 31 31 30 30 29 29 29 28 27 27 26 23 21 21 20 20 20 20 19 19 18 18 18 18 18 18 18 18 18 18 18 18 18 18 18 18 18 18 18 18 18 18 18 17 17 17
31 33 32 31 30 31 30 29 29 29 28 27 27 26 23 20 20 20 20 20 20 20 19 18 18 18 18 18 18 18 18 18 18 18 18 18 18 18 18 18 18 18 17 17 17 17 17 17 17
33 33 32 32 31 31 30 29 29 29 28 27 26 26 23 21 20 20 20 20 20 19 19 18 18 18 18 18 18 18 18 18 18 18 18 18 18 18 18 17 17 18 18 17 17 17 17 17 17
32 34 33 32 31 31 30 29 29 29 28 26 26 27 24 21 20 20 19 19 19 19 19 18 18 18 18 18 18 18 18 18 18 18 18 18 18 18 17 17 17 17 17 17 17 17 17 17 17
31 34 32 32 32 31 31 30 29 28 27 26 26 26 24 21 20 20 19 19 18 18 18 18 18 18 18 18 18 18 18 18 18 18 18 17 17 17 17 17 17 17 17 17 17 17 17 17 17
33 33 32 33 32 32 31 30 29 29 28 27 25 23 22 21 20 20 20 20 19 18 18 18 18 18 18 18 17 17 17 17 17 17 17 17 17 17 17 17 17 17 17 17 17 17 17 17 17
33 33 33 33 32 31 31 30 30 30 30 28 26 23 22 21 21 21 21 21 20 19 18 18 18 18 18 18 18 17 17 17 17 17 17 17 17 17 17 17 17 17 17 17 17 17 17 17 17
33 33 32 32 31 31 31 31 30 30 29 28 26 24 22 22 22 22 21 21 20 19 19 18 18 18 18 18 18 17 17 17 17 17 17 17 17 17 17 17 17 17 17 17 17 17 17 17 17
33 33 32 32 31 31 31 31 30 29 28 26 25 24 23 23 23 22 21 20 20 19 19 19 18 18 18 18 18 17 17 17 17 17 17 17 17 17 17 17 17 17 17 17 17 17 17 17 17
32 32 32 32 32 31 31 31 30 29 28 26 25 24 24 23 23 22 21 20 20 20 19 19 19 19 19 19 18 18 17 18 17 17 17 17 17 17 17 17 17 17 17 17 17 17 17 17 17
32 33 33 32 32 31 32 31 31 29 28 27 26 25 24 23 23 22 21 21 20 20 20 20 19 19 19 18 18 18 18 18 17 17 17 17 17 17 17 17 17 17 17 17 17 17 17 17 17
33 33 33 32 32 31 32 31 31 29 28 27 26 25 24 23 23 22 21 21 20 20 20 20 19 19 19 19 18 18 18 18 18 17 17 17 17 17 17 17 17 17 17 17 17 17 17 17 17
33 33 32 32 32 32 32 32 31 29 29 28 27 26 24 23 23 22 21 21 21 20 20 20 19 19 19 19 18 18 18 18 17 17 17 18 17 17 17 17 17 17 17 17 17 17 17 17 17
32 33 32 32 32 32 32 32 31 29 29 29 27 26 25 24 23 22 21 21 21 20 20 20 19 19 19 19 18 18 18 18 17 17 17 17 17 17 17 17 17 17 17 17 17 17 17 17 17
32 32 32 32 32 32 32 32 31 30 29 29 28 27 26 24 24 22 21 21 21 21 20 20 19 19 19 19 19 18 18 18 18 18 18 17 17 17 18 17 17 17 17 17 17 17 17 17 17
32 32 32 32 31 32 32 32 31 30 29 29 28 27 26 25 23 22 22 21 21 21 21 20 20 20 19 19 19 19 18 18 18 18 18 18 17 17 17 17 17 17 17 17 17 17 17 17 17
32 32 32 32 31 32 32 31 31 30 29 28 28 27 26 25 24 23 22 21 21 21 21 20 20 20 19 19 19 18 18 18 18 18 18 18 18 17 17 17 17 17 17 17 17 17 17 17 17
31 32 32 31 31 32 31 31 31 31 30 29 28 27 26 25 24 23 22 22 21 21 21 20 20 20 20 19 19 18 18 18 18 18 18 18 18 17 17 17 17 17 17 17 17 17 17 17 17
32 31 31 31 31 31 31 31 32 31 30 30 29 27 26 25 24 23 23 22 21 21 20 20 20 20 20 19 19 19 18 18 18 18 18 18 17 17 17 17 17 17 17 17 17 17 17 17 17
30 31 30 31 32 30 31 31 31 32 31 31 29 27 26 25 24 23 22 21 21 21 20 20 20 20 19 19 19 19 18 18 18 18 18 18 17 17 17 17 17 17 17 17 17 17 17 17 17
31 31 30 30 30 30 30 30 31 31 31 30 29 27 25 24 24 23 22 21 21 21 20 20 20 20 19 19 19 18 18 18 18 18 18 18 17 17 17 17 17 17 17 17 17 17 17 17 17
31 31 30 30 30 31 30 30 32 31 29 28 28 27 25 25 24 23 22 22 21 21 20 20 20 20 19 19 19 19 18 18 18 18 18 17 17 17 17 17 17 17 17 17 17 17 17 16 16
31 31 33 31 30 30 31 31 31 30 30 29 28 27 26 25 24 23 22 22 21 21 20 20 20 20 19 19 19 19 18 18 18 18 17 17 17 17 17 17 17 17 17 17 17 17 17 16 16
31 32 31 31 29 29 30 30 31 31 30 30 29 27 26 25 24 23 22 22 21 21 20 20 20 20 19 19 18 18 18 18 18 17 17 17 17 17 17 17 17 17 17 17 17 16 16 16 16
29 30 31 31 31 30 30 31 32 31 31 30 29 27 26 25 24 23 22 22 21 20 20 20 19 19 19 19 18 18 18 18 17 17 17 17 17 17 17 17 17 17 16 16 16 16 16 16 16
31 31 30 30 29 29 30 31 31 31 31 30 29 27 26 24 24 23 22 21 21 21 20 20 19 19 19 19 18 18 18 17 17 17 17 17 17 17 17 17 17 17 16 16 16 16 16 16 16
Wind_Speed
9 7 5 4 4 12 17 14 12 10 8 8 7 5 7 8 7 9 9 12 12 13 14 14 13 13 13 13 13 13 14 13 13 13 13 13 13 13 14 14 14 15 16 16 17 17 18 18 18
6 5 4 0 9 14 15 12 13 11 9 8 7 7 9 9 9 11 11 12 13 13 14 14 14 13 13 13 13 13 13 13 13 13 13 13 13 13 13 14 14 15 15 16 16 17 17 16 16
6 5 1 7 14 15 14 12 12 10 7 6 6 7 7 8 9 9 12 14 13 12 13 15 13 13 12 12 12 12 12 12 12 12 12 12 12 12 13 13 14 14 15 16 16 16 16 15 15
4 3 3 10 17 14 12 10 9 9 8 6 8 9 8 7 6 11 15 13 13 12 13 16 12 12 12 12 12 12 12 11 11 11 12 12 12 12 13 13 14 14 15 15 15 15 15 14 14
4 1 9 14 15 12 10 8 6 7 6 7 8 11 9 7 10 15 14 13 12 12 12 15 12 12 11 11 11 11 11 11 11 11 11 11 12 12 13 13 13 13 14 14 14 13 14 13 13
1 2 9 13 13 9 8 6 6 8 9 8 9 11 8 9 12 13 13 11 11 11 12 15 12 11 10 10 10 11 11 11 11 11 11 11 12 12 12 13 13 13 13 13 13 12 13 13 12
2 6 11 12 11 10 7 5 6 7 8 7 7 9 9 11 12 13 12 10 10 10 11 12 13 12 10 9 10 10 10 10 11 11 11 12 12 12 12 12 12 13 13 12 12 11 12 12 12
2 3 9 10 9 10 7 5 5 5 8 7 4 6 10 14 13 13 12 10 9 8 9 9 10 10 10 11 10 10 10 10 10 11 11 11 12 12 11 12 11 12 12 11 11 11 11 11 11
3 3 8 9 7 7 6 6 5 5 7 6 4 5 12 18 15 14 12 11 10 8 7 8 9 8 7 9 11 10 10 9 10 10 10 8 9 10 9 11 11 10 11 10 10 10 10 10 11
2 5 9 6 5 5 5 4 5 5 6 6 8 11 17 18 16 15 13 12 12 10 9 7 7 7 6 6 8 7 7 8 6 7 7 6 6 6 9 11 9 10 10 10 10 9 9 7 9
3 5 5 4 3 3 4 4 4 3 3 6 11 16 18 17 15 14 12 12 11 11 9 8 7 6 6 5 5 5 5 6 6 6 5 5 6 6 7 8 9 9 9 8 9 8 5 5 5
2 4 3 2 3 2 3 4 4 1 4 5 11 18 18 17 15 13 12 11 10 10 10 8 7 6 4 4 4 5 4 4 5 6 5 5 4 4 5 4 6 6 6 5 5 4 5 4 4
2 3 2 1 2 2 3 3 3 3 5 10 14 17 17 15 14 12 11 10 10 10 10 9 8 6 5 4 3 4 4 4 5 4 4 3 4 4 4 4 3 4 5 6 4 4 4 3 3
3 1 1 2 3 4 4 4 3 4 8 12 14 15 15 14 14 12 12 11 11 10 10 9 9 8 6 5 4 3 4 3 4 4 5 4 3 4 4 4 4 4 4 3 4 4 4 3 3
2 2 4 3 3 3 4 4 4 6 10 12 13 13 14 13 13 13 12 12 12 11 10 10 10 9 8 7 5 5 4 5 4 4 5 5 4 4 3 3 4 4 4 4 4 3 3 3 3
5 6 4 4 2 3 6 2 6 8 10 11 12 12 13 13 13 12 12 11 11 11 11 11 10 10 9 7 5 5 4 4 4 4 5 5 4 4 4 3 3 4 4 4 3 3 3 3 3
7 5 3 4 2 3 6 1 5 7 9 10 11 12 12 12 12 12 11 11 11 11 11 11 10 10 9 8 6 6 5 5 5 5 5 6 6 6 5 4 3 4 4 3 4 3 3 3 3
4 4 3 2 1 4 6 3 5 6 8 9 10 11 11 12 12 12 11 11 11 11 11 11 10 9 8 7 6 5 6 6 6 6 6 6 7 7 6 5 5 5 4 4 3 3 3 3 3
2 4 3 1 0 3 5 4 4 6 8 9 9 10 10 10 10 11 12 12 12 12 12 12 12 11 9 7 7 7 6 6 6 6 7 7 7 7 7 5 5 5 5 4 5 4 4 4 3
6 6 5 3 1 3 3 4 4 6 8 7 9 9 9 10 10 11 12 12 13 13 12 12 12 12 10 8 6 5 5 5 5 5 6 7 7 7 7 6 5 5 5 5 5 5 4 4 4
8 7 4 2 2 4 4 6 6 6 6 7 7 8 8 10 11 12 12 12 12 12 12 11 12 12 11 9 7 6 5 5 5 6 6 7 8 8 7 6 6 5 6 6 6 6 7 5 5
8 4 4 4 6 3 4 5 6 6 7 7 8 8 9 9 10 11 12 12 12 11 11 11 11 11 11 10 9 9 7 7 6 5 5 6 7 7 7 7 7 6 5 5 7 7 6 6 6
4 3 4 5 6 6 5 7 3 6 6 7 7 7 8 8 10 11 11 11 10 10 10 10 10 10 11 11 10 8 8 6 5 5 5 5 5 6 6 6 6 6 6 6 6 5 7 6 7
6 6 5 7 8 8 4 6 3 3 3 4 6 7 7 8 9 9 9 9 8 9 9 10 10 10 10 10 9 9 8 7 6 5 5 5 4 5 5 6 5 6 5 5 6 6 7 7 7
10 9 8 8 8 6 3 6 3 2 1 2 4 7 8 8 9 10 10 9 9 9 10 10 10 9 9 9 8 8 8 7 7 6 5 5 4 4 4 5 5 5 5 5 6 6 6 7 7
13 13 10 8 7 4 5 5 1 2 2 3 5 7 9 10 10 9 9 9 9 9 10 10 9 9 8 8 8 7 7 6 5 6 5 5 4 3 3 4 4 5 5 5 5 5 6 6 6
11 13 10 8 7 7 5 3 3 4 4 5 7 9 10 10 10 10 9 8 8 9 9 9 9 9 8 8 7 6 6 6 5 5 5 4 3 3 4 4 4 4 4 4 5 4 5 5 6
7 9 7 10 8 9 7 7 4 6 6 7 8 9 10 10 10 10 9 9 8 8 8 9 9 8 8 7 6 5 5 5 5 5 4 4 3 3 3 3 4 4 4 4 4 4 4 4 4
10 10 9 9 9 9 7 4 2 3 5 7 8 9 11 11 11 10 10 9 8 8 8 8 8 8 7 7 6 4 4 4 4 4 4 4 3 3 3 3 3 4 4 4 3 4 3 4 3
12 13 13 11 9 9 9 3 5 2 3 5 7 9 10 10 10 11 10 9 8 8 8 8 8 7 7 7 6 5 4 3 3 3 3 3 3 3 3 3 3 4 3 3 4 4 3 3 3
Wind_Direction
186 189 215 233 105 74 69 68 72 78 75 74 75 62 61 49 45 89 115 124 126 127 125 127 118 116 114 113 111 110 110 110 109 108 106 106 104 103 104 104 104 105 106 107 107 108 108 109 108
183 199 229 198 72 76 71 69 70 71 89 96 85 79 77 69 73 107 126 129 133 129 129 123 120 118 115 113 112 110 110 110 109 109 107 106 104 103 103 104 106 106 107 107 107 109 110 110 110
195 230 309 70 65 69 76 74 82 89 96 98 91 68 67 83 103 118 128 138 135 125 122 118 123 120 117 114 113 112 112 110 109 109 108 106 105 105 105 105 106 106 107 108 108 109 111 112 113
222 205 89 74 73 70 76 86 95 100 93 91 103 93 82 82 106 124 133 141 133 131 130 122 127 123 120 117 116 114 112 111 110 109 108 108 107 106 105 105 105 106 107 109 108 109 112 115 115
242 85 86 79 75 76 78 85 90 88 92 100 104 104 96 89 114 128 138 139 135 132 127 126 129 127 124 122 119 117 113 113 111 109 108 107 108 108 108 108 107 107 108 110 111 113 115 117 115
223 73 77 78 80 83 88 94 92 89 101 106 112 109 99 121 130 137 139 140 135 133 128 126 131 130 129 127 125 122 118 114 110 108 107 106 107 109 109 110 110 110 111 112 116 117 118 117 117
27 65 74 76 83 86 85 91 90 103 111 113 118 113 123 137 139 141 138 136 133 134 131 135 140 138 135 128 125 124 119 116 113 110 108 109 108 109 111 112 113 113 111 113 115 117 116 116 118
332 88 81 74 73 82 98 102 93 97 104 118 131 126 144 148 147 143 139 139 135 136 133 137 139 140 146 138 129 125 121 119 117 115 115 114 116 115 121 121 114 115 115 115 114 114 115 116 120
274 87 74 66 64 85 112 117 109 112 125 127 112 100 130 143 149 149 148 147 146 146 145 146 141 144 143 136 134 138 132 130 137 127 126 143 130 124 132 108 117 120 120 118 118 117 120 128 129
302 70 66 56 59 83 118 121 133 148 146 140 127 116 132 147 156 161 161 161 160 158 156 152 148 147 144 137 138 146 142 140 141 127 136 129 112 110 111 114 121 125 126 127 123 130 147 163 138
16 53 67 69 66 88 126 136 153 162 143 160 159 149 152 157 165 167 166 166 161 160 161 160 158 153 150 147 146 142 133 135 134 127 130 123 131 127 125 133 138 142 151 142 138 156 144 127 117
46 55 44 58 87 121 122 131 142 114 63 119 152 154 159 165 170 171 169 166 161 165 168 164 161 161 164 160 152 156 150 149 140 137 154 142 134 128 121 136 133 145 139 129 136 129 117 116 125
54 46 41 82 148 140 140 135 121 109 111 127 143 155 165 170 169 170 167 167 169 173 174 171 171 168 169 173 189 159 156 159 147 147 148 154 151 144 135 129 134 144 133 144 144 139 128 135 142
18 17 85 118 139 151 162 146 145 130 134 140 152 163 170 172 172 169 173 177 179 181 180 176 178 177 180 182 186 173 169 168 164 167 163 180 168 151 157 156 155 150 152 142 152 153 160 170 154
246 212 146 119 152 167 188 167 158 150 150 156 164 168 171 176 177 179 181 184 184 183 182 183 184 183 190 192 193 190 190 183 182 179 179 191 190 169 185 171 176 164 163 164 186 182 189 191 187
226 225 195 126 166 183 233 135 123 152 168 170 171 172 177 181 186 185 185 186 185 185 185 189 191 187 191 195 200 206 203 194 195 191 190 197 199 195 206 197 185 172 188 189 190 202 202 200 212
218 221 191 145 170 206 236 142 127 164 178 177 178 178 181 183 191 188 189 187 187 188 188 188 194 190 192 194 198 206 203 212 213 202 205 200 206 206 212 208 190 194 197 206 220 191 211 213 221
211 217 199 193 152 227 231 199 153 175 190 185 183 184 186 190 192 189 189 188 187 187 187 187 195 193 193 194 195 206 210 211 215 213 211 212 214 214 221 212 206 212 207 213 218 211 221 229 232
239 239 223 137 78 241 229 216 180 183 194 190 189 191 193 195 187 183 183 186 185 187 187 189 195 190 190 194 200 205 210 214 211 212 213 216 222 218 220 229 208 218 217 221 216 216 213 224 226
219 229 215 166 119 254 235 228 198 192 203 202 200 198 198 191 183 182 185 187 190 189 191 192 195 193 195 198 205 212 213 219 214 213 208 218 222 223 220 223 226 221 218 218 221 222 234 235 225
219 236 228 208 188 210 244 222 201 193 201 205 210 206 200 195 190 186 188 191 193 193 191 193 193 193 199 195 200 206 207 220 212 213 212 219 222 223 230 226 232 232 230 220 222 225 231 240 237
218 216 224 217 235 226 259 269 188 192 200 204 206 204 202 198 194 190 191 193 195 193 190 193 192 195 195 194 202 206 212 216 219 219 215 216 220 225 227 227 230 234 237 232 233 228 235 238 244
215 153 202 228 247 257 239 275 202 180 205 201 199 198 197 194 192 191 192 189 190 190 188 190 190 192 194 198 201 208 217 221 223 220 216 221 219 227 229 224 226 230 237 234 240 239 239 238 242
154 163 184 228 244 248 246 267 254 178 205 189 180 184 183 180 179 181 181 178 183 185 185 186 188 194 193 197 202 208 215 216 219 221 219 218 216 224 224 227 227 233 238 235 235 237 236 245 251
199 210 219 224 229 239 160 251 271 95 176 209 184 177 174 172 172 174 175 177 179 181 182 183 184 190 192 196 203 211 214 215 218 226 221 224 227 225 218 230 228 235 237 238 238 239 245 243 247
212 225 238 249 245 219 185 242 216 120 166 184 176 166 167 169 169 171 173 174 176 178 179 180 180 185 189 192 197 206 211 217 220 222 228 223 233 232 223 226 229 235 238 242 239 246 244 245 249
209 227 244 249 262 264 234 232 216 166 176 174 166 165 168 168 165 167 168 170 172 175 178 179 180 182 187 190 191 198 208 219 221 217 223 227 229 226 219 225 227 232 238 243 242 248 251 251 254
248 224 220 238 242 247 233 233 219 174 177 175 176 174 169 166 164 165 166 168 168 169 171 174 177 180 184 185 190 190 198 205 215 222 218 221 221 226 224 231 238 240 239 238 240 250 252 254 260
196 210 224 233 244 252 247 222 132 179 185 184 181 177 172 169 166 165 164 163 161 161 163 168 171 173 176 178 179 187 188 194 204 213 214 213 221 225 232 236 239 244 245 240 234 246 247 250 264
222 220 214 223 226 243 264 228 116 164 185 183 176 170 169 167 166 164 161 159 160 161 161 163 166 169 170 167 167 173 178 185 198 205 209 206 213 224 228 237 237 245 244 236 233 242 246 249 264
Height
1504 1504 1505 1506 1500 1503 1511 1510 1507 1511 1515 1519 1521 1521 1521 1524 1526 1538 1543 1543 1545 1547 1547 1547 1549 1550 1551 1551 1552 1553 1554 1554 1555 1555 1556 1556 1557 1557 1558 1558 1559 1559 1560 1560 1561 1562 1563 1564 1564
1507 1507 1508 1503 1500 1514 1519 1511 1513 1516 1520 1522 1524 1524 1526 1531 1536 1540 1543 1545 1547 1549 1550 1551 1551 1552 1553 1554 1554 1555 1556 1556 1557 1557 1558 1559 1559 1559 1560 1561 1561 1562 1563 1563 1564 1565 1566 1567 1567
1508 1508 1508 1500 1506 1515 1520 1514 1517 1520 1523 1524 1526 1528 1530 1536 1540 1542 1545 1547 1550 1551 1552 1551 1553 1554 1555 1556 1556 1557 1558 1558 1559 1560 1560 1561 1561 1562 1562 1563 1564 1564 1565 1566 1567 1567 1568 1569 1570
1511 1511 1506 1503 1513 1514 1514 1516 1519 1521 1524 1526 1527 1531 1536 1541 1543 1545 1546 1549 1551 1553 1555 1553 1554 1556 1557 1558 1558 1559 1560 1561 1561 1562 1562 1563 1564 1564 1565 1565 1566 1567 1568 1569 1569 1570 1571 1572 1572
1512 1507 1504 1510 1514 1514 1516 1519 1521 1520 1524 1527 1528 1532 1539 1543 1544 1546 1549 1551 1553 1555 1557 1556 1556 1558 1559 1560 1560 1561 1562 1563 1563 1564 1564 1565 1566 1566 1567 1568 1568 1569 1570 1571 1572 1573 1573 1574 1575
1511 1503 1507 1516 1517 1516 1518 1521 1522 1523 1527 1530 1531 1534 1542 1545 1547 1549 1551 1553 1555 1557 1558 1557 1558 1560 1561 1562 1562 1563 1564 1564 1565 1566 1566 1567 1568 1568 1569 1570 1570 1571 1572 1573 1574 1575 1576 1576 1577
1510 1504 1510 1512 1516 1517 1519 1522 1522 1524 1527 1531 1533 1535 1543 1546 1548 1550 1552 1555 1557 1559 1560 1561 1561 1561 1562 1563 1564 1565 1565 1566 1567 1567 1568 1569 1570 1570 1571 1572 1572 1573 1574 1575 1576 1577 1578 1578 1579
1512 1505 1509 1511 1515 1518 1520 1523 1525 1525 1529 1534 1535 1536 1542 1546 1549 1551 1553 1555 1557 1560 1562 1562 1564 1565 1566 1566 1566 1567 1567 1568 1569 1569 1570 1571 1571 1572 1573 1574 1574 1575 1576 1577 1578 1579 1580 1581 1581
1513 1507 1513 1513 1516 1517 1520 1523 1527 1529 1531 1534 1536 1537 1541 1545 1548 1552 1554 1556 1558 1560 1562 1564 1565 1566 1568 1569 1568 1568 1569 1569 1570 1571 1571 1573 1575 1575 1575 1575 1576 1577 1578 1579 1580 1581 1582 1582 1583
1510 1509 1514 1514 1515 1516 1520 1523 1526 1528 1530 1534 1537 1540 1542 1545 1549 1552 1555 1557 1559 1560 1562 1564 1566 1567 1568 1570 1570 1571 1572 1571 1573 1573 1574 1575 1575 1576 1577 1576 1577 1578 1579 1580 1581 1582 1583 1585 1586
1512 1511 1514 1516 1517 1519 1520 1523 1525 1525 1526 1531 1535 1539 1543 1546 1550 1553 1555 1558 1559 1561 1562 1564 1566 1567 1569 1570 1571 1572 1573 1573 1574 1574 1575 1576 1577 1578 1578 1578 1579 1580 1581 1583 1583 1584 1586 1587 1587
1514 1515 1517 1517 1519 1520 1520 1522 1524 1525 1527 1530 1534 1538 1543 1546 1550 1552 1555 1558 1560 1561 1562 1564 1565 1567 1568 1570 1572 1572 1574 1574 1575 1575 1576 1577 1578 1579 1579 1579 1581 1582 1583 1583 1585 1585 1586 1587 1588
1516 1517 1518 1518 1519 1520 1522 1522 1525 1527 1529 1531 1534 1539 1543 1547 1550 1553 1555 1557 1559 1561 1562 1564 1565 1567 1568 1569 1571 1573 1574 1575 1576 1576 1576 1577 1579 1580 1580 1580 1581 1583 1584 1584 1585 1586 1587 1587 1588
1518 1518 1518 1518 1519 1521 1521 1523 1525 1528 1531 1533 1536 1540 1543 1546 1550 1552 1554 1556 1558 1560 1562 1563 1565 1566 1567 1569 1570 1572 1574 1574 1576 1576 1577 1577 1579 1580 1581 1581 1582 1583 1584 1585 1586 1587 1587 1588 1589
1519 1516 1516 1517 1519 1520 1520 1522 1524 1528 1531 1534 1537 1540 1543 1546 1549 1551 1553 1555 1558 1559 1561 1563 1564 1566 1567 1569 1570 1572 1574 1575 1576 1576 1577 1577 1579 1579 1580 1582 1582 1583 1584 1584 1585 1586 1587 1588 1589
1514 1513 1516 1517 1518 1520 1521 1522 1523 1527 1530 1532 1536 1539 1543 1545 1548 1551 1553 1555 1557 1558 1560 1562 1564 1565 1567 1568 1569 1572 1573 1574 1575 1576 1576 1577 1578 1578 1580 1581 1582 1582 1584 1584 1585 1586 1587 1588 1588
1513 1516 1517 1518 1518 1518 1518 1519 1523 1527 1528 1531 1535 1538 1541 1544 1547 1549 1551 1553 1555 1557 1559 1561 1563 1564 1566 1567 1569 1570 1571 1572 1574 1575 1576 1576 1577 1578 1579 1580 1581 1582 1583 1584 1585 1586 1586 1586 1587
1519 1516 1518 1518 1516 1516 1516 1517 1521 1525 1527 1529 1533 1537 1540 1542 1545 1547 1549 1551 1553 1555 1557 1559 1561 1563 1565 1566 1568 1569 1570 1571 1572 1573 1574 1575 1576 1577 1578 1579 1579 1581 1582 1582 1583 1583 1584 1585 1585
1515 1516 1518 1518 1516 1516 1516 1517 1519 1523 1525 1528 1531 1534 1537 1540 1543 1545 1547 1548 1550 1552 1554 1556 1558 1560 1562 1564 1566 1567 1569 1570 1571 1572 1572 1573 1574 1575 1576 1577 1578 1579 1580 1580 1581 1582 1582 1583 1584
1517 1518 1518 1517 1517 1517 1516 1516 1516 1521 1523 1526 1529 1532 1535 1538 1541 1543 1544 1546 1548 1550 1552 1554 1556 1558 1560 1562 1564 1566 1567 1568 1569 1570 1571 1571 1572 1573 1575 1575 1576 1577 1578 1578 1579 1579 1581 1581 1582
1517 1517 1517 1519 1518 1516 1517 1519 1517 1518 1522 1525 1527 1530 1533 1536 1538 1540 1542 1544 1546 1548 1549 1552 1554 1555 1558 1560 1562 1563 1565 1566 1568 1568 1569 1570 1571 1572 1572 1573 1574 1574 1575 1576 1576 1577 1578 1579 1580
1518 1513 1516 1518 1519 1517 1519 1523 1515 1514 1518 1521 1524 1527 1530 1533 1536 1538 1540 1542 1544 1546 1548 1549 1551 1553 1555 1557 1559 1561 1562 1564 1565 1566 1567 1568 1569 1569 1570 1570 1571 1572 1573 1573 1574 1575 1575 1576 1577
1513 1514 1515 1516 1517 1519 1518 1522 1513 1511 1515 1516 1520 1524 1527 1530 1533 1536 1538 1540 1542 1544 1546 1547 1549 1551 1553 1554 1556 1558 1560 1562 1563 1564 1565 1566 1567 1567 1568 1568 1569 1569 1570 1571 1571 1572 1572 1573 1574
1515 1517 1518 1516 1515 1529 1521 1525 1519 1508 1512 1513 1517 1522 1526 1529 1532 1534 1537 1539 1541 1542 1544 1545 1547 1549 1550 1552 1554 1556 1557 1559 1560 1561 1562 1564 1565 1565 1566 1566 1566 1567 1567 1568 1568 1569 1569 1570 1570
1514 1519 1529 1531 1530 1527 1519 1523 1516 1508 1510 1513 1516 1521 1524 1527 1530 1533 1535 1537 1539 1540 1542 1543 1545 1546 1548 1550 1552 1554 1555 1557 1558 1560 1561 1561 1563 1563 1563 1564 1564 1564 1565 1565 1566 1566 1566 1566 1566
1510 1511 1527 1536 1531 1521 1522 1520 1509 1508 1512 1514 1516 1519 1523 1526 1529 1531 1534 1536 1537 1539 1540 1542 1543 1545 1546 1548 1550 1552 1553 1555 1556 1557 1559 1559 1560 1561 1561 1561 1561 1562 1562 1562 1562 1563 1563 1563 1563
1510 1509 1502 1514 1521 1525 1516 1512 1506 1507 1510 1512 1515 1518 1521 1525 1528 1530 1533 1534 1536 1537 1539 1540 1542 1543 1545 1546 1548 1549 1551 1552 1553 1555 1556 1557 1557 1558 1558 1558 1559 1559 1559 1559 1560 1560 1560 1560 1560
1505 1502 1510 1515 1531 1534 1523 1518 1510 1506 1507 1510 1513 1516 1520 1523 1526 1529 1531 1533 1534 1536 1537 1538 1540 1541 1543 1545 1546 1547 1548 1549 1551 1553 1553 1554 1555 1555 1556 1556 1556 1557 1557 1557 1557 1557 1557 1556 1556
1510 1510 1507 1509 1512 1525 1528 1516 1498 1502 1504 1507 1511 1515 1518 1522 1525 1527 1530 1532 1533 1535 1536 1537 1538 1540 1541 1543 1545 1546 1547 1548 1549 1550 1551 1552 1553 1553 1553 1554 1554 1554 1554 1554 1554 1554 1554 1554 1554
1499 1500 1506 1516 1520 1517 1516 1512 1498 1501 1503 1506 1509 1514 1518 1521 1524 1527 1529 1531 1532 1534 1535 1536 1537 1539 1540 1542 1543 1544 1546 1546 1548 1549 1549 1550 1550 1551 1551 1551 1551 1551 1551 1551 1551 1551 1551 1551 1551